Location: Namasale
(1.5000°N, 32.6167°E)
Time: 00:14:29
(UTC+00:00)

Vanguard 3 - Pass Details

Date: 04 December 2021
Orbit: 508 x 3260 km, 33.3° (Epoch: 27 January)

Event Time Altitude Azimuth Distance (km) Brightness Sun altitude
Exits shadow 00:13:47 36° 16° (NNE) 4,377 10.5 -47.2°
Drops below altitude 10° 00:24:23 10° 39° (NE) 5,993 11.6 -44.9°
Sets 00:29:01 0° 45° (NE) 6,810 12.0 -43.9°
